Temp
95 95 79 79 78 78 78 78 78 78 78 78 78 78 78 77 77 77 77 77 77 77 77 77 77 78 78 78 78 78 78 78 78 79 79 80 81 81 80 81 81 88 79
99 94 78 79 78 79 79 78 78 78 78 78 78 78 78 77 77 77 77 77 77 77 77 78 78 78 78 78 79 78 78 78 78 78 79 79 81 81 81 81 81 84 79
98 94 85 78 78 79 78 78 78 78 77 78 78 78 77 77 77 77 77 77 77 77 77 78 78 78 78 78 78 79 78 78 78 78 78 87 87 81 81 81 81 80 79
98 92 90 78 78 79 78 78 78 77 77 78 78 78 77 77 77 77 77 77 77 77 78 78 78 78 78 78 78 78 78 78 78 78 86 92 90 81 81 81 81 80 79
97 94 90 78 78 79 78 78 77 77 77 78 78 78 78 78 78 77 77 77 77 78 79 79 79 79 78 78 78 77 78 77 78 81 88 90 90 87 80 80 80 79 79
99 97 89 78 78 78 78 78 77 77 77 78 78 78 78 78 77 77 77 77 77 78 78 79 79 79 78 78 78 77 77 77 77 87 88 88 85 83 80 80 80 80 78
100 99 96 78 78 78 78 78 77 77 77 77 78 78 78 77 77 77 77 77 77 78 77 78 78 78 77 78 78 77 76 77 83 88 88 86 88 78 78 79 79 78 78
99 96 96 80 77 77 78 78 77 77 77 77 77 77 77 77 77 77 77 77 77 77 77 77 77 77 76 76 77 76 76 76 84 85 87 87 82 76 77 77 78 77 77
99 96 94 91 82 77 77 77 77 77 76 76 76 76 76 77 77 77 77 77 76 76 76 76 76 76 75 75 75 75 76 76 83 87 88 88 79 76 76 77 77 78 77
99 98 94 91 91 87 86 77 77 77 76 76 76 76 76 76 77 76 75 75 75 75 75 75 75 75 75 75 75 75 75 75 82 81 86 88 77 76 77 77 77 77 77
98 97 96 95 93 90 90 87 78 77 77 76 77 76 77 84 85 84 80 77 75 74 74 74 74 74 74 74 74 75 75 83 85 80 81 80 76 76 77 77 77 77 77
96 96 97 92 91 91 93 89 85 87 87 86 85 84 84 84 84 83 80 75 74 74 74 73 74 74 75 82 84 76 82 84 86 82 80 77 75 76 77 77 77 77 77
100 98 96 89 89 89 91 90 89 89 88 87 84 83 83 84 84 84 84 82 80 78 81 81 81 82 82 81 79 78 84 85 87 84 81 75 74 75 77 77 77 77 76
98 97 95 91 85 85 91 89 89 89 87 86 86 81 80 82 81 80 82 81 78 82 80 80 81 80 79 80 81 77 80 85 86 85 82 75 74 74 75 76 77 76 76
95 97 94 90 84 84 84 88 87 86 86 86 85 83 82 82 80 81 80 80 77 80 79 79 80 79 79 80 81 79 80 81 84 83 80 75 74 73 74 76 77 76 76
94 94 93 87 83 84 83 83 83 83 86 84 85 84 80 81 80 81 78 77 78 78 81 75 79 79 80 80 80 79 80 82 81 80 84 83 73 72 72 75 76 76 76
94 92 89 84 83 81 81 81 83 85 84 85 84 81 80 79 79 77 77 77 75 77 76 75 76 77 78 79 77 78 79 78 77 79 81 83 83 72 73 74 76 76 75
92 88 85 86 84 81 81 82 84 85 84 84 84 83 79 78 77 76 74 72 71 74 74 74 75 76 76 75 74 74 76 77 76 79 81 83 84 85 77 75 75 75 75
90 86 81 83 83 80 80 83 83 81 82 84 83 83 81 79 78 75 73 69 73 73 72 73 76 76 71 70 69 70 75 77 79 81 81 81 80 83 83 76 74 73 74
84 81 81 82 81 80 81 81 83 83 83 83 83 82 80 79 78 74 72 72 70 71 71 72 73 72 71 67 69 71 74 80 81 81 77 81 78 80 81 80 80 80 73
81 79 79 79 77 80 81 81 81 81 82 82 82 80 79 79 76 72 70 71 71 70 72 74 69 68 67 68 67 67 70 75 75 74 77 77 77 81 80 79 77 77 70
78 78 78 77 77 79 82 82 83 83 84 84 84 79 79 78 74 72 70 70 73 71 73 72 69 67 66 68 68 69 68 67 74 74 77 74 74 79 81 80 79 74 71
77 77 77 77 77 80 80 80 79 79 80 80 80 80 78 77 76 74 72 72 71 75 72 69 69 68 65 68 73 71 67 70 73 70 72 75 75 76 76 80 78 73 69
78 79 79 78 77 78 78 79 77 80 79 82 80 82 78 77 76 74 72 71 73 73 68 70 72 70 69 68 74 76 75 79 73 65 68 72 76 75 72 77 74 73 72
79 79 79 78 78 77 78 79 78 77 80 81 81 74 75 73 72 75 75 75 73 69 70 72 72 70 71 68 70 71 72 74 78 72 69 66 70 75 69 73 68 68 70
81 80 78 77 76 77 78 77 76 75 75 78 77 73 73 72 70 75 76 74 73 72 73 74 74 73 71 71 71 71 70 69 69 70 68 69 65 64 66 67 68 65 65
MSLP
1008.19 1008.89 1010.47 1010.94 1011.46 1012.02 1012.43 1012.80 1013.14 1013.38 1013.63 1013.86 1014.02 1014.22 1014.38 1014.60 1014.77 1014.84 1014.88 1015.11 1015.28 1015.33 1015.32 1015.31 1015.18 1015.17 1015.20 1015.17 1015.11 1015.17 1015.06 1015.06 1014.94 1014.88 1014.75 1014.50 1014.30 1014.38 1014.65 1014.67 1014.84 1014.49 1015.17
1007.52 1008.69 1010.18 1010.66 1011.02 1011.51 1011.99 1012.44 1012.91 1013.27 1013.49 1013.72 1013.91 1014.10 1014.25 1014.45 1014.63 1014.69 1014.88 1015.03 1015.18 1015.25 1015.24 1015.22 1015.22 1015.23 1015.21 1015.16 1015.02 1015.06 1015.21 1015.10 1015.09 1014.87 1014.85 1014.64 1014.36 1014.35 1014.57 1014.70 1014.71 1014.40 1015.31
1007.44 1008.58 1010.07 1010.56 1010.82 1011.30 1011.83 1012.31 1012.64 1012.91 1013.31 1013.61 1013.85 1014.01 1014.19 1014.40 1014.58 1014.72 1014.74 1014.87 1014.92 1015.01 1015.15 1015.14 1015.15 1015.10 1015.06 1015.08 1015.02 1014.87 1015.05 1014.96 1015.08 1014.90 1014.79 1014.07 1013.65 1014.17 1014.51 1014.66 1014.74 1015.01 1015.37
1007.39 1008.44 1009.36 1010.32 1010.78 1011.10 1011.60 1012.09 1012.53 1012.90 1013.13 1013.43 1013.73 1013.93 1014.11 1014.26 1014.45 1014.55 1014.65 1014.67 1014.77 1014.80 1014.76 1014.84 1014.87 1014.95 1014.97 1014.90 1014.90 1014.96 1014.77 1014.81 1015.01 1014.87 1014.34 1013.14 1013.19 1013.90 1014.23 1014.47 1014.65 1014.85 1015.29
1007.44 1008.22 1008.92 1009.82 1010.52 1010.86 1011.38 1011.94 1012.44 1012.75 1013.06 1013.23 1013.52 1013.75 1013.91 1014.03 1014.14 1014.37 1014.45 1014.50 1014.52 1014.59 1014.65 1014.54 1014.58 1014.60 1014.71 1014.78 1014.80 1014.85 1014.82 1014.79 1014.82 1014.75 1013.95 1013.31 1013.16 1012.98 1013.92 1014.38 1014.59 1014.82 1015.20
1007.10 1007.78 1008.63 1009.59 1010.24 1010.82 1011.23 1011.68 1012.18 1012.57 1012.84 1013.09 1013.24 1013.50 1013.67 1013.77 1013.95 1014.10 1014.25 1014.32 1014.32 1014.34 1014.36 1014.33 1014.32 1014.41 1014.43 1014.46 1014.57 1014.63 1014.78 1014.61 1014.62 1014.03 1013.63 1013.45 1013.77 1013.19 1013.74 1014.05 1014.48 1014.64 1014.99
1006.73 1007.37 1008.10 1009.47 1010.12 1010.54 1010.88 1011.36 1011.81 1012.21 1012.63 1012.96 1013.05 1013.20 1013.38 1013.50 1013.62 1013.85 1013.99 1014.07 1014.12 1014.06 1014.12 1014.19 1014.13 1014.20 1014.36 1014.31 1014.34 1014.34 1014.65 1014.36 1014.06 1013.34 1013.22 1013.46 1013.31 1013.68 1013.93 1014.03 1014.35 1014.69 1015.05
1006.57 1007.18 1007.67 1009.21 1009.94 1010.31 1010.65 1011.00 1011.50 1011.90 1012.25 1012.65 1012.79 1013.01 1013.17 1013.28 1013.37 1013.50 1013.63 1013.74 1013.80 1013.87 1013.88 1013.97 1013.97 1013.98 1014.18 1014.29 1014.30 1014.34 1014.50 1014.37 1013.81 1013.51 1012.98 1013.06 1013.34 1013.82 1014.05 1014.14 1014.35 1014.68 1015.02
1006.87 1007.49 1007.67 1008.32 1009.56 1010.21 1010.53 1010.87 1011.35 1011.83 1012.13 1012.37 1012.59 1012.81 1013.00 1013.14 1013.15 1013.19 1013.31 1013.46 1013.64 1013.77 1013.84 1013.88 1013.87 1013.88 1014.03 1014.11 1014.18 1014.25 1014.21 1014.20 1013.66 1012.77 1012.67 1012.88 1013.19 1013.79 1013.95 1014.06 1014.31 1014.57 1014.92
1006.48 1007.03 1007.59 1007.98 1008.42 1009.21 1009.96 1010.88 1011.31 1011.70 1012.00 1012.31 1012.47 1012.67 1012.87 1012.96 1012.94 1012.99 1013.10 1013.18 1013.39 1013.57 1013.67 1013.74 1013.75 1013.73 1013.73 1013.79 1013.87 1013.99 1013.95 1013.98 1013.66 1013.10 1012.59 1012.41 1013.18 1013.76 1013.91 1013.94 1014.18 1014.42 1014.79
1005.80 1006.30 1006.97 1007.38 1007.70 1008.37 1008.87 1009.73 1011.05 1011.57 1011.85 1012.20 1012.39 1012.44 1012.64 1012.24 1011.79 1011.90 1012.06 1012.59 1012.98 1013.19 1013.38 1013.43 1013.48 1013.48 1013.48 1013.38 1013.36 1013.45 1013.58 1012.96 1012.43 1012.81 1012.81 1012.23 1013.16 1013.71 1013.82 1013.76 1014.03 1014.14 1014.55
1005.01 1005.79 1006.26 1007.17 1007.59 1007.89 1008.25 1009.01 1010.04 1010.43 1010.85 1011.13 1011.36 1011.40 1011.55 1011.51 1011.47 1011.63 1011.93 1012.35 1012.65 1012.79 1012.97 1012.97 1013.00 1013.02 1013.06 1012.13 1011.73 1012.69 1012.53 1012.08 1011.75 1011.98 1012.50 1012.52 1013.11 1013.61 1013.62 1013.54 1013.73 1013.97 1014.34
1003.60 1004.68 1005.60 1006.80 1007.41 1007.89 1007.83 1008.48 1009.12 1009.61 1010.03 1010.46 1010.92 1011.15 1011.21 1011.24 1011.16 1011.21 1011.12 1011.27 1011.48 1011.72 1011.80 1011.62 1011.61 1011.66 1011.43 1011.42 1011.69 1011.82 1011.27 1011.30 1011.13 1011.20 1012.20 1012.55 1013.16 1013.43 1013.46 1013.36 1013.53 1013.64 1014.14
1002.86 1003.39 1004.69 1006.11 1007.14 1007.56 1007.59 1008.08 1008.47 1009.02 1009.60 1009.99 1010.38 1010.96 1011.12 1010.97 1011.02 1011.12 1010.79 1010.85 1011.19 1011.14 1011.15 1011.47 1011.20 1011.24 1011.52 1011.46 1011.21 1011.70 1011.24 1010.66 1010.59 1010.80 1011.48 1012.44 1013.15 1013.37 1013.33 1013.18 1013.23 1013.50 1013.90
1002.20 1002.77 1003.89 1005.59 1006.78 1007.22 1007.71 1007.80 1008.28 1008.82 1009.31 1009.47 1009.99 1010.38 1010.67 1010.52 1010.64 1010.62 1010.73 1010.85 1011.10 1010.92 1010.89 1011.12 1010.98 1011.12 1011.10 1011.12 1010.89 1011.06 1010.87 1010.90 1010.71 1011.15 1011.54 1012.13 1012.81 1013.04 1013.01 1012.88 1012.94 1013.42 1013.77
1001.70 1002.41 1003.50 1004.97 1006.13 1006.63 1007.15 1007.54 1008.19 1008.61 1008.68 1009.30 1009.45 1009.71 1010.36 1010.40 1010.39 1010.43 1010.63 1010.75 1010.69 1010.62 1010.44 1011.19 1010.64 1010.78 1010.75 1010.67 1010.57 1010.81 1010.65 1010.63 1010.92 1011.35 1011.20 1011.32 1012.18 1012.56 1012.69 1012.74 1012.95 1013.20 1013.61
1001.43 1002.26 1003.05 1004.58 1005.58 1006.12 1006.73 1007.64 1008.13 1008.27 1008.76 1008.80 1008.94 1009.53 1009.96 1010.29 1010.21 1010.48 1010.43 1010.40 1010.54 1010.63 1010.85 1011.08 1010.86 1010.83 1010.85 1010.68 1010.65 1010.44 1010.66 1010.95 1011.30 1011.30 1011.48 1011.25 1010.95 1011.89 1012.31 1012.47 1012.56 1012.72 1013.26
1001.16 1001.95 1003.17 1004.08 1004.71 1005.35 1005.85 1006.78 1007.39 1007.83 1008.55 1008.60 1008.65 1008.99 1009.49 1009.85 1009.99 1010.17 1010.27 1010.39 1010.60 1010.60 1010.65 1010.79 1010.50 1010.35 1010.31 1010.41 1010.74 1010.82 1010.89 1010.95 1011.13 1011.01 1011.09 1010.87 1010.71 1010.62 1011.52 1011.93 1012.08 1012.40 1012.88
1000.85 1001.88 1003.13 1003.70 1004.35 1005.13 1006.04 1006.36 1007.06 1007.81 1008.30 1008.29 1008.36 1008.50 1008.79 1009.23 1009.37 1009.63 1009.85 1010.17 1010.08 1010.27 1010.31 1010.34 1010.05 1010.11 1010.39 1010.74 1010.98 1011.02 1010.80 1010.59 1010.54 1010.58 1010.57 1010.68 1011.11 1010.89 1010.84 1011.32 1011.58 1012.04 1012.67
1001.16 1002.20 1003.01 1003.59 1004.22 1005.11 1005.65 1006.35 1006.88 1007.40 1007.82 1007.92 1008.04 1008.15 1008.41 1008.66 1008.84 1009.32 1009.65 1009.77 1009.94 1009.97 1010.07 1010.06 1009.92 1010.31 1010.30 1010.77 1010.72 1010.72 1010.53 1010.03 1010.19 1010.19 1010.77 1010.50 1010.85 1010.78 1010.71 1010.84 1011.14 1011.72 1012.58
1001.52 1002.26 1002.91 1003.75 1004.51 1004.92 1005.47 1005.77 1006.29 1006.76 1007.12 1007.43 1007.65 1007.88 1008.19 1008.24 1008.60 1009.08 1009.33 1009.43 1009.59 1009.67 1009.48 1009.48 1010.01 1010.17 1010.33 1010.57 1010.56 1010.75 1010.72 1010.61 1010.59 1010.73 1010.65 1010.77 1010.62 1010.11 1010.49 1010.52 1010.99 1011.40 1012.67
1001.60 1002.27 1002.99 1003.84 1004.66 1004.91 1005.21 1005.66 1005.96 1006.35 1006.69 1007.00 1007.24 1007.76 1007.85 1007.88 1008.40 1008.75 1008.96 1009.05 1009.02 1009.07 1009.17 1009.43 1009.75 1009.76 1010.14 1010.23 1009.73 1009.71 1009.86 1010.63 1010.26 1010.50 1010.50 1010.72 1010.69 1010.49 1010.29 1010.44 1010.66 1011.66 1012.58
1001.55 1002.32 1003.10 1003.87 1004.59 1004.94 1005.37 1006.12 1006.58 1006.87 1007.05 1006.94 1007.04 1007.20 1007.52 1007.82 1007.94 1008.23 1008.52 1008.67 1008.95 1008.66 1008.70 1009.15 1009.39 1009.49 1009.54 1009.69 1009.33 1008.88 1008.47 1008.05 1009.08 1010.42 1010.39 1010.42 1010.55 1010.63 1010.75 1010.42 1010.77 1011.82 1012.83
1001.60 1002.40 1003.16 1003.95 1004.62 1005.29 1005.75 1005.85 1006.14 1005.98 1006.05 1006.36 1006.76 1006.94 1007.38 1007.57 1007.64 1007.95 1008.28 1008.47 1008.36 1008.42 1008.92 1008.87 1008.87 1009.09 1009.19 1008.95 1008.95 1008.73 1008.57 1007.67 1007.98 1009.80 1010.51 1010.34 1010.35 1010.49 1010.95 1011.01 1011.39 1011.97 1012.19
1001.72 1002.27 1003.20 1004.02 1004.73 1005.41 1005.83 1005.87 1006.16 1006.27 1006.41 1006.55 1006.79 1007.22 1007.22 1007.44 1007.75 1007.72 1007.78 1007.82 1007.98 1008.49 1008.56 1008.40 1008.62 1009.04 1009.01 1009.07 1008.88 1008.94 1008.81 1008.71 1008.24 1008.46 1009.04 1010.46 1010.72 1010.76 1011.47 1011.44 1012.27 1012.70 1013.05
1001.61 1002.44 1003.33 1004.13 1004.83 1005.44 1005.84 1006.17 1006.31 1006.55 1006.61 1006.49 1006.62 1006.80 1006.79 1007.12 1007.62 1007.50 1007.42 1007.77 1007.89 1008.05 1008.06 1008.17 1008.42 1008.66 1008.84 1008.89 1009.10 1009.01 1008.85 1008.81 1008.60 1008.65 1008.94 1009.65 1010.73 1011.59 1011.93 1012.28 1012.74 1013.45 1013.79
Wind_Speed
11 19 21 20 19 18 18 18 17 16 15 14 12 12 11 9 7 5 4 3 3 2 1 1 1 1 3 3 2 2 2 2 2 4 4 5 7 10 10 13 14 14 15
17 20 22 21 21 20 19 17 16 15 15 14 13 11 10 9 8 7 5 4 3 2 2 2 3 3 3 4 4 3 4 4 4 4 6 7 10 11 12 12 14 10 14
19 18 22 21 21 20 18 17 17 16 15 14 13 12 10 9 8 8 6 6 5 5 5 4 4 4 4 5 5 5 5 5 6 6 8 11 11 14 13 12 13 11 15
18 17 21 22 21 20 18 17 16 15 14 14 13 12 11 11 10 10 9 9 8 9 8 8 7 7 6 5 5 7 5 7 8 8 10 12 8 15 14 14 14 13 16
17 17 19 24 21 20 18 16 15 14 14 14 13 12 12 11 11 11 11 11 11 11 12 12 10 9 9 7 6 7 9 6 9 10 12 8 8 12 13 13 14 15 16
17 17 17 22 21 19 18 17 15 15 14 14 14 13 13 12 11 12 13 12 13 13 14 13 13 12 11 9 8 8 9 8 8 12 9 8 9 4 10 14 14 14 16
15 17 17 20 20 20 19 18 17 16 14 14 13 13 13 13 12 13 13 13 14 15 16 14 14 12 12 10 10 8 10 9 11 12 7 8 11 5 4 9 13 12 15
14 16 15 19 20 19 19 18 17 16 15 14 13 13 13 13 12 14 13 13 13 12 14 14 15 12 11 9 10 9 10 11 12 12 9 8 5 1 6 9 10 12 14
11 14 14 16 19 17 17 17 16 15 14 14 13 13 12 13 12 11 11 11 10 11 12 14 13 13 12 11 11 11 11 11 13 10 10 8 10 5 8 9 8 13 14
13 14 15 14 18 18 16 14 14 14 13 13 13 13 12 13 13 11 8 12 11 9 11 12 13 14 13 12 12 12 11 12 13 11 10 8 7 3 8 9 10 12 15
14 16 16 16 16 17 17 15 14 15 13 11 13 13 11 11 11 12 10 4 7 9 11 12 13 12 13 14 14 14 13 10 12 7 8 9 5 7 10 9 11 12 17
18 17 16 15 15 15 12 13 13 13 11 11 11 10 9 10 8 7 9 6 9 11 12 13 13 12 12 10 8 15 9 13 11 8 6 9 5 9 10 10 10 13 18
15 17 17 15 14 15 13 10 7 8 7 7 9 8 8 7 7 7 6 7 8 11 8 9 9 9 11 6 5 7 11 12 9 6 10 9 5 10 10 11 10 14 17
14 18 18 17 15 15 10 10 10 7 7 6 7 9 8 6 7 8 7 7 6 7 7 7 6 6 8 10 9 8 11 9 7 5 6 10 8 10 10 11 11 15 18
15 15 17 17 16 14 13 10 9 8 8 7 6 8 7 7 7 7 7 7 7 8 8 7 7 7 8 9 10 9 11 12 11 3 5 13 9 9 10 11 12 16 21
13 13 15 18 18 17 14 12 10 8 7 7 7 6 7 7 7 8 7 9 9 9 8 7 6 6 7 8 8 9 10 9 10 9 7 7 11 9 9 11 13 19 22
11 12 16 18 19 17 16 12 9 8 7 7 6 6 8 8 9 10 8 8 8 8 9 8 8 7 8 7 10 7 8 8 8 9 7 7 7 13 11 12 14 18 25
11 13 15 16 20 19 15 12 9 7 7 6 6 6 8 10 11 9 8 7 7 8 8 9 9 6 8 5 7 5 7 7 9 6 8 7 7 6 13 13 13 16 23
9 11 16 17 19 18 13 11 9 8 7 6 5 6 8 10 11 10 6 5 8 8 7 8 9 6 5 4 5 6 6 8 6 7 8 7 8 5 3 10 14 15 22
7 12 14 14 16 15 12 9 8 7 7 6 6 7 8 8 11 8 7 8 6 6 7 8 5 7 5 5 6 7 6 5 6 4 5 5 5 8 8 10 9 9 21
7 11 13 14 15 13 11 10 8 8 6 5 5 7 9 9 8 7 6 7 7 7 9 7 6 8 5 6 6 4 4 2 5 5 4 3 5 5 6 6 5 7 8
10 12 14 15 16 12 9 6 4 4 4 3 3 4 7 8 7 7 8 7 7 5 8 8 9 5 5 8 8 6 7 5 5 5 4 4 3 2 3 6 8 10 12
11 13 15 16 15 11 9 7 5 4 4 5 5 5 5 6 7 7 7 6 9 8 6 8 8 9 7 8 8 4 4 5 8 4 6 5 5 4 2 4 9 11 10
12 14 16 15 13 10 9 7 5 3 4 1 3 2 4 7 6 5 6 9 9 5 7 7 7 7 7 8 8 7 6 3 9 6 4 5 6 5 4 3 7 11 12
15 16 15 14 12 11 8 6 6 4 3 3 2 4 6 4 3 5 7 9 7 5 7 7 7 7 6 5 5 4 6 3 2 5 9 6 4 4 2 4 8 6 7
16 15 14 14 12 11 9 7 4 4 3 3 3 4 4 1 4 6 7 6 7 6 6 7 7 7 5 4 5 6 3 2 4 3 6 9 6 3 4 6 6 5 5
Wind_Direction
176 152 169 167 166 172 175 176 177 176 176 176 175 173 171 172 174 175 167 153 140 139 149 195 194 231 253 243 244 260 275 292 327 322 327 225 189 174 180 169 172 195 146
162 159 172 171 172 178 180 180 179 180 180 181 183 184 183 184 187 192 204 213 215 220 221 244 241 231 243 253 247 223 255 270 279 298 296 230 205 189 187 186 201 153 156
160 165 175 177 178 181 182 183 184 184 184 185 189 192 197 200 206 213 220 241 258 266 271 257 255 252 239 250 255 261 242 258 267 275 281 249 204 195 199 200 207 161 161
160 170 182 182 183 183 185 188 187 189 189 191 197 202 208 212 219 227 231 238 253 269 270 265 260 244 245 245 251 265 275 243 254 264 254 238 223 180 204 210 205 185 171
169 175 186 177 189 185 187 189 192 193 195 199 206 214 221 227 235 242 243 244 247 257 263 272 267 262 248 234 240 246 259 270 248 250 246 260 245 178 197 211 203 197 185
177 181 177 178 189 188 188 190 194 198 202 207 212 220 228 234 239 241 247 254 254 253 255 259 267 270 255 263 266 240 242 250 261 243 237 242 263 120 189 210 223 202 199
181 187 182 180 188 191 189 191 195 199 206 211 215 225 234 238 241 248 251 256 262 261 259 255 260 267 264 258 263 263 253 238 255 253 229 245 242 112 223 223 219 216 203
184 190 193 180 193 192 193 192 195 198 203 210 218 227 234 242 249 248 250 262 266 275 274 271 266 262 269 274 267 264 253 244 233 250 245 243 224 62 249 244 225 214 203
201 200 197 186 195 197 196 195 198 202 205 210 218 228 236 248 254 252 258 266 273 277 278 278 275 273 270 262 260 257 252 241 259 255 243 232 163 200 249 238 226 207 197
208 205 206 203 192 201 197 199 201 205 207 214 222 231 239 250 251 246 249 236 245 271 277 278 275 271 269 259 253 248 249 245 243 256 251 244 111 243 262 241 226 207 188
218 209 209 203 201 200 201 190 199 211 213 219 228 230 242 248 252 230 230 282 279 272 274 277 271 267 266 258 250 241 240 244 236 218 259 134 152 250 261 250 226 211 188
235 218 213 216 210 201 201 200 200 208 218 222 232 244 235 250 260 288 303 279 264 270 272 268 263 265 260 255 234 223 230 238 235 210 235 136 172 249 254 257 226 210 192
240 222 213 203 207 208 196 190 198 203 209 224 242 245 247 264 253 247 253 245 238 217 253 235 229 230 243 236 256 215 243 224 236 201 244 140 209 249 256 262 230 208 197
250 230 210 203 204 204 201 192 197 201 206 217 229 227 239 239 238 254 269 266 264 262 265 258 263 260 268 259 257 247 245 243 225 227 204 154 219 243 258 263 231 210 195
261 234 209 198 200 196 206 190 202 202 198 224 222 219 240 253 251 261 257 264 259 257 248 246 247 261 260 242 250 226 220 232 236 215 263 158 205 238 255 263 236 207 197
255 235 205 195 195 191 193 191 190 196 202 216 224 227 220 248 247 259 248 248 251 249 250 258 241 250 247 254 233 239 230 215 222 209 232 185 186 224 248 252 239 208 192
260 229 200 194 192 189 188 183 195 184 218 215 223 215 230 236 240 255 263 260 266 259 251 246 244 227 250 237 259 214 226 210 218 222 235 241 184 200 224 239 229 216 196
252 214 187 195 188 183 176 178 186 184 210 222 223 229 227 238 244 247 248 250 245 245 233 231 239 226 241 224 235 221 222 204 215 210 225 238 234 244 189 215 216 209 202
242 194 193 198 184 177 168 169 175 178 216 223 228 236 237 240 238 242 253 241 234 236 225 226 243 235 259 226 216 210 209 218 191 210 219 216 239 252 227 205 201 204 194
194 189 196 187 179 171 159 160 174 181 212 221 231 241 246 241 242 244 244 247 228 226 224 228 224 239 233 203 204 194 218 206 196 187 221 209 220 235 231 223 189 197 194
175 180 185 178 161 165 165 173 180 199 203 220 235 245 252 248 243 240 236 236 220 219 228 214 231 227 211 204 184 176 176 199 191 183 191 179 248 220 238 222 184 170 162
159 165 165 161 162 168 161 178 192 198 197 260 263 256 249 245 240 235 232 225 219 226 221 221 221 211 197 194 196 174 168 169 187 160 189 176 176 225 219 205 167 142 156
154 156 158 157 160 162 145 151 157 154 211 214 202 224 213 231 240 241 223 215 207 232 222 219 218 209 198 191 210 218 199 176 165 181 186 178 170 166 201 212 160 151 149
149 153 152 152 154 149 167 162 177 230 234 81 255 267 253 232 247 233 208 211 218 191 224 213 214 206 211 183 195 224 295 140 188 159 186 167 170 160 145 167 142 139 156
152 146 147 145 152 146 158 165 182 217 166 205 255 259 243 243 236 195 210 200 201 211 209 214 183 194 204 204 203 193 217 194 215 201 161 160 141 98 76 100 86 109 131
145 143 143 147 145 154 158 160 178 169 224 262 267 287 261 190 186 204 198 201 200 196 180 181 181 186 217 202 211 206 223 179 180 170 177 153 117 89 117 93 98 103 85